Terug naar catalogus

FENGYUN 1C DEB

LostSSO
NORAD 31240·DEBRIS·🇨🇳 China

Gelanceerd May 10, 1999 vanaf Taiyuan Satellite Launch Center

Loading…

Volgende Passages (komende 24 uur)

TLE

VerouderdSource: Space-Track

Epoch: Aug 8, 2026, 06:32 UTC

1 31240U 99025BLW 26220.27261519  .00000430  00000-0  26577-3 0  9997
2 31240  98.7548 223.1673 0046673  62.5031 311.0189 14.09889952254582

Volg FENGYUN 1C DEB in realtime met AllMySat

Download on the App Store